date,batt_volt,AirTemp_C,Solar_kW,RH,Manual_BP,StationID,WS_ms,PTemp,WS_15min_max,Prog_Sig,Solar_Raw,Bar_mbar,Solar_MJ,Max_WS_2min,Pressure_Raw,Rain_mm,WD_15min_ave,Max_AirTemp_1min,WindDir,WS_15min_med,WS_15min_ave,Elevation_Correction
2020-04-01T00:08:52Z,13.26943,-0.54953,0.0,87.38126,0,1156,2.7048,2.652134,3.9788,43690,0.0,1013.673,0.0,3.45,1011.872,0,56.0676016519,-0.448,48.93894,2.0286,1.98519999762,1.80078
2020-04-01T00:23:53Z,13.26391,-0.4816894,0.0,87.48302,0,1156,1.666,2.629543,4.5276,43690,0.0,1013.673,0.0,4.528,1011.872,0,51.5628236509,-0.312,21.31445,1.5876,1.71651666369,1.80078
2020-04-01T00:38:52Z,13.27495,-0.3460045,0.0,87.41518,0,1156,2.2932,2.586617,3.9984,43690,0.0,1013.673,0.0,1.705,1011.872,0,57.428923849,-0.346,65.29205,1.323,1.32498333036,1.80078
2020-04-01T00:53:57Z,13.27495,-0.3453293,0.0,87.04354,0,1156,0.0,2.566284,4.0964,43690,0.0,1013.673,0.0,0.09800001,1011.872,0,72.209150641,-0.278,91.73797,0.0196,0.579301773373,1.80078
2020-04-01T01:08:55Z,13.28048,-0.210289,0.0,86.87251,0,1156,0.0,2.566284,2.4108,43690,0.0,1013.268,0.0,0.0,1011.467,0,59.9513635565,-0.21,10.74153,0.0,0.239633332738,1.80078
2020-04-01T01:23:56Z,13.28619,-0.3459854,0.0,87.00816,0,1156,0.0,2.503025,1.47,43690,0.0,1013.268,0.0,0.0,1011.467,0,49.5815976634,-0.244,85.25782,0.0,0.118567899383,1.80078
2020-04-01T01:38:57Z,13.29713,-0.2774315,0.0,87.07757,0,1156,1.666,2.460098,5.096,43690,0.0,1013.268,0.0,5.096,1011.467,0,42.4651767038,-0.243,354.0671,0.0,0.551121052632,1.80078
2020-04-01T01:53:58Z,13.29721,-0.3448143,0.0,86.84113,0,1156,2.0188,2.417175,3.038,43690,0.0,1013.268,0.0,0.98,1011.467,0,81.0307401512,-0.244,51.78241,0.0882,0.653710254487,1.80078
2020-04-01T02:09:04Z,13.28049,-0.2091293,0.0,86.43405,0,1156,2.5872,2.480434,3.9396,43690,0.0,1012.874,0.0,2.019,1011.073,0,51.8676402059,-0.175,43.16004,1.0584,1.10711005385,1.80078
2020-04-01T02:24:02Z,13.27496,-0.2435875,0.0,86.43289,0,1156,1.3524,2.523357,5.9388,43690,0.0,1012.874,0.0,3.802,1011.073,0,65.4902739106,-0.108,39.01692,2.3716,2.36763333155,1.80078
2020-04-01T02:39:01Z,13.26391,-0.2441254,0.0,86.53348,0,1156,0.5488,2.586617,5.39,43690,0.0,1012.874,0.0,4.802,1011.073,0,77.208604358,-0.176,79.3574,1.9012,1.95498333214,1.80078
2020-04-01T02:54:04Z,13.26391,-0.2100296,0.0,86.77131,0,1156,0.0,2.629543,3.5476,43690,0.0,1012.874,0.0,3.548,1011.073,0,80.9013343457,-0.074,83.83742,0.0098,0.562468420395,1.80078
2020-04-01T03:09:01Z,13.26945,-0.2099533,0.0,87.2803,0,1156,0.9799999,2.629543,4.6844,43690,0.0,1012.616,0.0,2.254,1010.815,0,58.7829016745,-0.176,65.00364,1.6268,1.52126153333,1.80078
2020-04-01T03:24:02Z,13.26943,-0.2442207,0.0,87.61875,0,1156,1.1956,2.629543,2.9988,43690,0.0,1012.616,0.0,2.999,1010.815,0,74.8712567371,-0.176,87.54582,0.8428,0.908258970513,1.80078
2020-04-01T03:39:06Z,13.26968,-0.2103004,0.0,87.99188,0,1156,0.0196,2.629543,4.5864,43690,0.0,1012.616,0.0,1.666,1010.815,0,82.1169473605,-0.142,105.0068,1.3132,1.3967029574,1.80078
2020-04-01T03:54:04Z,13.27496,-0.2441902,0.0,88.09372,0,1156,0.0,2.629543,5.7624,43690,0.0,1012.616,0.0,2.313,1010.815,0,86.3867525485,-0.176,89.93022,0.5782,1.00893332917,1.80078
2020-04-01T04:09:06Z,13.27496,-0.2442207,0.0,88.43286,0,1156,3.2536,2.609211,4.8412,43690,0.0,1012.127,0.0,4.782,1010.326,0,63.4000900492,-0.176,75.7205,2.3324,2.16888521893,1.80078
2020-04-01T04:24:03Z,13.28048,-0.2435493,0.0,88.84142,0,1156,1.4308,2.566284,4.41,43690,0.0,1012.127,0.0,3.254,1010.326,0,70.2778769597,-0.21,109.8978,1.8522,1.9181166631,1.80078
2020-04-01T04:39:05Z,13.28601,-0.1763649,0.0,89.11132,0,1156,1.666,2.543694,6.2916,43690,0.0,1012.127,0.0,3.254,1010.326,0,73.3591002286,-0.176,67.267,1.764,1.71552189231,1.80078
2020-04-01T04:54:03Z,13.28608,-0.2436218,0.0,89.45184,0,1156,3.9984,2.503025,4.606,43690,0.0,1012.127,0.0,3.371,1010.326,0,61.2181268732,-0.142,61.99348,2.4108,2.16276666607,1.80078
2020-04-01T05:09:03Z,13.28601,-0.2775879,0.0,89.82489,0,1156,3.626,2.480434,5.8212,43690,0.0,1011.64,0.0,5.272,1009.839,0,47.7766089254,-0.21,53.20259,3.7044,3.64098089172,1.80078
2020-04-01T05:24:05Z,13.26393,-0.2442131,0.0,90.02718,0,1156,6.0172,2.566284,6.6052,43690,0.0,1011.64,0.0,5.547,1009.839,0,47.5391068388,-0.244,28.75646,3.7436,3.71564970296,1.80078
2020-04-01T05:39:07Z,13.26391,-0.2441902,0.0,90.06116,0,1156,3.2536,2.586617,7.663599,43690,0.0,1011.64,0.0,6.037,1009.839,0,48.6833134222,-0.176,50.19137,4.1356,4.27617069427,1.80078
2020-04-01T05:54:08Z,13.26391,-0.175396,0.0,90.09723,0,1156,2.2344,2.609211,6.7228,43690,0.0,1011.64,0.0,6.546,1009.839,0,50.660518708,-0.141,48.7234,4.0768,4.21855,1.80078
2020-04-01T06:09:05Z,13.26436,-0.2772675,0.0,90.30053,0,1156,4.116,2.586617,6.566,43690,0.0,1011.478,0.0,6.566,1009.677,0,57.6512457206,-0.175,33.88712,3.724,3.71251464968,1.80078
2020-04-01T06:24:08Z,13.26421,-0.2101097,0.0,90.63818,0,1156,3.2928,2.586617,6.272,43690,0.0,1011.478,0.0,5.116,1009.677,0,53.2665591184,-0.176,47.78314,4.0278,4.06365647,1.80078
2020-04-01T06:39:06Z,13.27499,-0.2440262,0.0,90.8078,0,1156,3.724,2.566284,6.4484,43690,0.0,1011.478,0.0,6.174,1009.677,0,49.4955617294,-0.108,73.43288,3.8024,3.90991676301,1.80078
2020-04-01T06:54:05Z,13.27496,-0.2440567,0.0,90.9095,0,1156,3.2536,2.566284,6.664,43690,0.0,1011.478,0.0,6.448,1009.677,0,53.4032265208,-0.108,49.18,4.6648,4.65280940588,1.80078
2020-04-01T07:09:08Z,13.26943,-0.1424065,0.0,91.18061,0,1156,3.9004,2.586617,6.8208,43690,0.0,1011.238,0.0,5.723,1009.438,0,51.1616319359,-0.108,54.62288,4.1356,4.1815266213,1.80078
2020-04-01T07:24:09Z,13.28601,-0.2442207,0.0,91.41794,0,1156,5.88,2.566284,7.252,43690,0.0,1011.238,0.0,5.174,1009.438,0,46.3153711117,-0.109,51.10652,4.2336,4.24890887574,1.80078
2020-04-01T07:39:06Z,13.29734,-0.108448,0.0,91.58774,0,1156,2.3716,2.503025,6.2916,43690,0.0,1011.238,0.0,5.762,1009.438,0,48.3208808413,-0.108,50.6972,3.675,3.75608333333,1.80078
2020-04-01T07:54:09Z,13.28601,-0.2441711,0.0,91.68943,0,1156,4.6844,2.480434,6.5464,43690,0.0,1011.238,0.0,5.743,1009.438,0,43.9982540983,-0.075,53.27417,3.8808,3.96627455621,1.80078
2020-04-01T08:09:07Z,13.27496,-0.1761093,0.0,91.72386,0,1156,3.5084,2.543694,7.2912,43690,0.0,1010.743,0.0,6.233,1008.942,0,45.5835723821,-0.04,33.52534,4.1748,4.17328333274,1.80078
2020-04-01T08:24:10Z,13.26397,0.0271492,0.0,91.55362,0,1156,3.8808,2.609211,6.5856,43690,0.0,1010.743,0.0,5.762,1008.942,0,48.5588900147,-0.007,46.8918,4.312,4.38900828402,1.80078
2020-04-01T08:39:07Z,13.26391,-0.07461548,0.0,91.24833,0,1156,4.6452,2.67247,6.781599,43690,0.0,1010.743,0.0,4.684,1008.942,0,50.4362373266,0.061,53.08142,4.2728,4.29321666071,1.80078
2020-04-01T08:54:09Z,13.26391,-0.04069519,0.0,91.3501,0,1156,5.1744,2.735729,6.4484,43690,0.0,1010.743,0.0,6.448,1008.942,0,48.1871242703,0.061,60.18624,4.4296,4.4199739645,1.80078
2020-04-01T09:09:11Z,13.25839,-0.006771088,0.0,91.45186,0,1156,3.3516,2.778652,6.5856,43690,0.0,1010.58,0.0,5.174,1008.779,0,48.0049880084,0.061,94.45796,4.0768,4.08723786982,1.80078
2020-04-01T09:24:08Z,13.26391,0.06106949,0.0,91.38402,0,1156,3.6652,2.778652,6.4484,43690,0.0,1010.58,0.0,6.448,1008.779,0,62.7207342182,0.163,68.83244,3.4496,3.53056666667,1.80078
2020-04-01T09:39:09Z,13.27496,-0.006771088,0.0,91.58754,0,1156,3.3712,2.735729,5.8604,43690,0.0,1010.58,0.0,3.881,1008.779,0,70.5618407978,0.163,66.42404,3.136,3.06676212959,1.80078
2020-04-01T09:54:12Z,13.26391,0.2645988,0.0009653217,91.75715,0,1156,0.8624,2.75832,5.1156,43690,0.06757252,1010.58,4.826608e-06,3.861,1008.779,0,75.7443863487,0.265,88.00341,2.254,2.3692804716,1.80078
2020-04-01T10:09:09Z,13.25839,0.2645988,0.003861287,91.96068,0,1156,2.1364,2.801247,4.6256,43690,0.2702901,1010.173,1.930643e-05,1.705,1008.372,0,84.3562393419,0.332,79.3813,1.8032,1.74346666429,1.80078
2020-04-01T10:24:11Z,13.26943,0.3324394,0.009170557,92.02852,0,1156,3.2732,2.821579,3.528,43690,0.6419389,1010.173,4.585278e-05,3.528,1008.372,0,86.4280256685,0.468,85.35416,0.3136,0.660485201775,1.80078
2020-04-01T10:39:13Z,13.26943,0.4342041,0.01447978,92.06244,0,1156,1.7444,2.801247,4.9588,43690,1.013585,1010.173,7.23989e-05,4.959,1008.372,0,68.150491358,0.536,50.57668,2.2736,2.34910058935,1.80078
2020-04-01T10:54:10Z,13.26391,0.5359688,0.02365038,92.06244,0,1156,0.294,2.844173,4.704,43690,1.655527,1010.173,0.0001182519,3.097,1008.372,0,69.0340241148,0.604,64.37688,2.4108,2.29319999643,1.80078
2020-04-01T11:09:12Z,13.26391,0.6716538,0.03185454,92.09637,0,1156,0.0,2.950356,3.3712,43690,2.229818,1010.091,0.0001592727,2.293,1008.291,0,105.020900016,0.739,127.5496,0.1764,0.661528992308,1.80078
2020-04-01T11:24:11Z,13.25286,0.841259,0.05550584,92.16421,0,1156,0.0,3.079136,3.8024,43690,3.885409,1010.091,0.0002775292,0.039,1008.291,0,110.068609277,0.841,125.9118,0.0392,0.414049995833,1.80078
2020-04-01T11:39:09Z,13.24181,0.8751831,0.05598866,92.09637,0,1156,0.0,3.248577,2.2736,43690,3.919206,1010.091,0.0002799433,0.96,1008.291,0,84.1073581824,1.045,91.90505,0.245,0.529433332143,1.80078
2020-04-01T11:54:13Z,13.23629,0.976944,0.05936728,92.13029,0,1156,0.0,3.377354,3.3124,43690,4.15571,1010.091,0.0002968364,0.9210001,1008.291,0,107.281445654,1.079,157.0285,0.0196,0.458222482249,1.80078
2020-04-01T12:09:11Z,13.23629,0.976944,0.05647132,92.13029,0,1156,2.3128,3.506134,4.4296,43690,3.952992,1009.929,0.0002823566,4.43,1008.128,0,90.9567333121,0.9770001,71.24086,1.0486,1.29196666369,1.80078
2020-04-01T12:24:14Z,13.23076,0.976944,0.04150884,92.09637,0,1156,2.3912,3.612316,4.5864,43690,2.905618,1009.929,0.0002075442,2.764,1008.128,0,81.9453881659,1.079,86.26935,1.3328,1.53285916923,1.80078
2020-04-01T12:39:12Z,13.23629,1.044788,0.05164161,92.09637,0,1156,1.8228,3.655243,3.9396,43690,3.614913,1009.929,0.0002582081,2.94,1008.128,0,71.8394792865,1.18,55.89926,1.3818,1.41808332619,1.80078
2020-04-01T12:54:11Z,13.23076,1.112629,0.06418815,92.23205,0,1156,2.0188,3.69817,3.9004,43690,4.493171,1009.929,0.0003209408,2.783,1008.128,0,69.7049003695,1.214,92.60348,1.8326,1.90633333274,1.80078
2020-04-01T13:09:15Z,13.23629,1.282238,0.07866417,92.13029,0,1156,2.2736,3.78402,4.312,43690,5.506492,1010.173,0.0003933208,3.724,1008.372,0,72.4767244986,1.316,81.42844,1.9012,1.90723076864,1.80078
2020-04-01T13:25:15Z,13.23076,1.316158,0.09941011,92.23205,0,1156,2.1952,3.892464,3.724,43690,6.958708,1010.173,0.0004970505,2.862,1008.372,0,70.4292485664,1.486,73.93828,2.0188,2.06117837838,1.80078
2020-04-01T13:40:14Z,13.21972,1.587528,0.136557,92.26597,0,1156,2.1168,4.064167,3.8612,43690,9.558988,1010.173,0.0006827848,2.293,1008.372,0,59.3793371448,1.689,82.75307,1.568,1.52617834204,1.80078
2020-04-01T13:55:15Z,13.21972,1.655373,0.1587441,92.33382,0,1156,1.0192,4.256203,4.1356,43690,11.11209,1010.173,0.0007937206,3.312,1008.372,0,68.427037638,1.757,81.30802,1.6464,1.63091974013,1.80078
2020-04-01T14:10:13Z,13.21972,1.689293,0.1457145,92.26597,0,1156,2.7832,4.4505,3.9592,43690,10.20001,1010.091,0.0007285722,3.959,1008.291,0,70.1259114214,1.859,68.25442,0.6664,0.875933330357,1.80078
2020-04-01T14:25:17Z,13.22338,2.05687,0.2122991,92.18594,0,1156,4.0768,4.642536,5.4292,43690,14.86094,1010.091,0.001061496,3.861,1008.291,0,68.4163035133,2.26,47.36722,1.9796,1.8801176437,1.80078
2020-04-01T14:40:13Z,13.21151,2.393909,0.242214,92.11349,0,1156,2.2932,4.879757,6.0956,43690,16.95498,1010.091,0.00121107,2.293,1008.291,0,59.2381937815,2.428,22.68312,0.80359995,1.37006419568,1.80078
2020-04-01T14:55:17Z,13.2046,2.455879,0.2166416,91.86339,0,1156,1.8032,5.225422,4.1356,43690,15.16491,1010.091,0.001083208,4.136,1008.291,0,72.150690093,2.524,75.79256,0.8231999,0.993453250888,1.80078
2020-04-01T15:10:15Z,13.19315,2.590733,0.2286979,91.69215,0,1156,0.8624,5.485237,3.7828,43690,16.00885,1010.084,0.001143489,2.607,1008.283,0,64.39464755,2.828,69.21842,1.6758,1.62574999881,1.80078
2020-04-01T15:25:13Z,13.1821,2.5229,0.1804412,91.55648,0,1156,0.0196,5.699864,3.528,43690,12.63089,1010.084,0.000902206,3.528,1008.283,0,65.9663600142,2.625,48.53714,1.764,1.72164999762,1.80078
2020-04-01T15:40:18Z,13.1821,2.62463,0.1905732,91.6243,0,1156,0.0,5.808308,4.2728,43690,13.34012,1010.084,0.0009528658,1.117,1008.283,0,67.9875587848,2.591,83.47136,0.4704,1.00180354793,1.80078
2020-04-01T15:55:15Z,13.17105,2.455082,0.1833383,91.59039,0,1156,1.0192,5.89642,3.1164,43690,12.83368,1010.084,0.0009166913,3.116,1008.283,0,64.6028278265,2.591,104.0082,0.441,0.822499997619,1.80078
2020-04-01T16:10:18Z,13.17105,2.488991,0.136057,91.79386,0,1156,0.6272,5.916752,5.586,43690,9.523987,1008.617,0.0006802847,2.332,1006.816,0,67.3607649436,2.523,50.51136,1.3328,1.44309348817,1.80078
2020-04-01T16:25:16Z,13.18762,2.488991,0.2204841,92.13295,0,1156,2.0972,5.830898,5.39,43690,15.43389,1008.617,0.001102421,4.802,1006.816,0,73.8717774354,2.591,133.6697,2.4696,2.55523333214,1.80078
2020-04-01T16:40:15Z,13.1821,2.794178,0.3975417,92.40423,0,1156,4.9392,5.939342,5.8016,43690,27.82792,1008.617,0.001987708,5.351,1006.816,0,76.5679359166,2.964,20.53679,2.0384,2.13546666548,1.80078
2020-04-01T16:55:15Z,13.16553,3.031548,0.329501,92.57378,0,1156,4.1944,6.373119,5.7232,43690,23.06507,1008.617,0.001647505,5.723,1006.816,0,72.2590297473,3.032,77.6209,2.2442,2.34348333214,1.80078
2020-04-01T17:10:15Z,13.15449,3.370644,0.2542022,92.47205,0,1156,0.392,6.852085,6.0172,43690,17.79415,1008.291,0.001271011,3.724,1006.49,0,67.0293545737,3.574,96.11124,2.3128,2.20453333155,1.80078
2020-04-01T17:25:20Z,13.14591,3.088127,0.2373091,92.27842,0,1156,2.6852,7.179676,6.6248,43690,16.61164,1008.291,0.001186546,5.684,1006.49,0,54.5384732103,3.157,30.52036,2.6068,2.6440284,1.80078
2020-04-01T17:40:19Z,13.14455,3.118996,0.2455086,92.06854,0,1156,4.4296,7.24519,7.016799,43690,17.1856,1008.291,0.001227543,4.9,1006.49,0,61.1963084763,3.288,52.90145,3.8416,3.97273332143,1.80078
2020-04-01T17:55:17Z,13.14451,3.084766,0.1765347,92.06784,0,1156,4.3904,7.267788,4.312,43690,12.35743,1008.291,0.0008826733,4.038,1006.49,0,58.9982722205,3.051,88.23257,2.4108,2.31104999821,1.80078
2020-04-01T18:10:21Z,13.13899,2.915272,0.1543473,92.20343,0,1156,3.5672,7.159344,6.4484,43690,10.80431,1007.957,0.0007717362,6.017,1006.156,0,68.6933554025,2.881,43.85154,2.744,2.8237917142,1.80078
2020-04-01T18:25:19Z,13.15607,2.84906,0.187146,92.30854,0,1156,2.4108,6.897266,6.3504,43690,13.10022,1007.957,0.0009357302,6.35,1006.156,0,61.5818155911,2.883,60.14766,2.6166,2.57074999881,1.80078
2020-04-01T18:40:17Z,13.17623,3.09763,0.2918127,92.4005,0,1156,0.4508,6.67812,6.4288,43690,20.42689,1007.957,0.001459064,5.135,1006.156,0,67.3758678158,3.199,83.6606,2.94,2.76185,1.80078
2020-04-01T18:55:21Z,13.17104,3.335892,0.2609433,92.26679,0,1156,0.9799999,6.67812,6.272,43690,18.26603,1007.957,0.001304717,3.548,1006.156,0,66.2274620264,3.472,43.28774,2.2932,2.27696331124,1.80078
2020-04-01T19:10:18Z,13.15404,3.030201,0.2083688,92.09616,0,1156,3.43,6.786564,6.468,43690,14.58582,1007.882,0.001041844,6.35,1006.081,0,68.4183002281,3.2,57.99718,2.3422,2.59618333155,1.80078
2020-04-01T19:25:22Z,13.15415,3.233299,0.1664056,91.75633,0,1156,0.0,6.743641,6.8992,43690,11.64839,1007.882,0.0008320281,4.586,1006.081,0,65.0762169723,3.233,65.86923,2.4108,2.40395739408,1.80078
2020-04-01T19:40:21Z,13.15368,3.030598,0.1389125,91.3171,0,1156,0.0,6.786564,3.822,43690,9.723877,1007.882,0.0006945626,2.293,1006.081,0,72.0421955575,3.132,43.50431,0.0,0.595,1.80078
2020-04-01T19:55:18Z,13.1469,2.992706,0.2069218,91.00349,0,1156,0.0,6.940197,6.0368,43690,14.48453,1007.882,0.001034609,4.782,1006.081,0,58.0879782892,3.027,69.01787,0.0,0.791816664881,1.80078
2020-04-01T20:10:22Z,13.14722,3.292789,0.1447005,90.61991,0,1156,0.0,7.048642,4.606,43690,10.12904,1007.563,0.0007235027,0.706,1005.762,0,85.7267266109,3.328,41.08814,0.0196,0.595654437278,1.80078
2020-04-01T20:25:19Z,13.13932,2.985111,0.1567589,90.58062,0,1156,2.548,7.136746,4.7824,43690,10.97313,1007.563,0.0007837946,1.372,1005.762,0,77.0724484712,3.019,77.09284,0.4998,1.00473333095,1.80078
2020-04-01T20:40:22Z,13.13353,2.950432,0.09067902,90.20608,0,1156,0.2156,7.136746,4.1748,43690,6.347531,1007.563,0.000453395,1.921,1005.762,0,74.2189912858,3.086,79.61864,0.0588,0.607947927811,1.80078
2020-04-01T20:55:20Z,13.13949,2.848057,0.08006763,90.34024,0,1156,0.0,7.114155,3.7436,43690,5.604734,1007.563,0.0004003382,0.372,1005.762,0,89.0442196096,2.95,30.03703,0.0,0.287333333333,1.80078
2020-04-01T21:10:22Z,13.15134,2.647991,0.08971434,90.5846,0,1156,2.0972,6.917598,5.6644,43690,6.280004,1007.67,0.0004485716,3.842,1005.869,0,69.6332890727,2.749,68.93651,1.4504,1.67511337389,1.80078
2020-04-01T21:25:19Z,13.15964,2.521568,0.08054997,91.0789,0,1156,3.9788,6.635197,8.0948,43690,5.638498,1007.67,0.0004027498,7.82,1005.869,0,61.8145813153,2.589,43.50391,3.7044,3.82584999345,1.80078
2020-04-01T21:40:20Z,13.17104,2.387215,0.0680161,91.2851,0,1156,7.4872,6.242084,8.8984,43690,4.761127,1007.67,0.0003400805,7.722001,1005.869,0,57.8181584704,2.489,41.31431,4.6354,4.73596661905,1.80078
2020-04-01T21:55:26Z,13.17105,2.217693,0.04341935,91.21734,0,1156,7.4284,5.982273,10.4664,43690,3.039355,1007.67,0.0002170968,8.25,1005.869,0,53.7707379925,2.252,46.89996,6.125,6.24641101852,1.80078
2020-04-01T22:10:25Z,13.18209,2.048145,0.02749966,91.14953,0,1156,6.468,5.787975,9.4668,43690,1.924976,1006.338,0.0001374983,8.679999,1004.537,0,52.1910438396,2.218,63.51236,6.3308,6.40919987273,1.80078
2020-04-01T22:25:24Z,13.19314,2.014236,0.01013139,91.28516,0,1156,5.1744,5.571087,9.623599,43690,0.7091972,1006.338,5.065694e-05,8.189999,1004.537,0,52.123351313,2.014,43.57748,6.2818,6.39706653571,1.80078
2020-04-01T22:40:23Z,13.20971,1.810776,0.001929911,91.42081,0,1156,9.4864,5.290939,9.721599,43690,0.1350938,1006.338,9.649553e-06,8.019999,1004.537,0,48.3356790644,1.845,47.64631,5.9584,5.99409994643,1.80078
2020-04-01T22:55:23Z,13.22075,1.709045,0.0004824872,91.48862,0,1156,7.742,5.074051,10.2704,43690,0.0337741,1006.338,2.412436e-06,7.311,1004.537,0,47.3347359008,1.709,34.0434,6.2328,6.42459989881,1.80078
2020-04-01T23:10:27Z,13.22094,1.642342,0.0,91.69454,0,1156,5.978,4.83683,9.702,43690,0.0,1006.012,0.0,8.58,1004.212,0,46.2514768863,1.677,37.67988,5.9388,6.18188632544,1.80078
2020-04-01T23:25:24Z,13.22806,1.544846,0.0,91.70389,0,1156,6.2132,4.642536,9.8,43690,0.0,1006.012,0.0,7.899,1004.212,0,51.8208567995,1.613,51.11982,6.566,6.57428321429,1.80078
2020-04-01T23:40:23Z,13.22996,1.445789,0.0,91.70983,0,1156,7.252,4.470833,9.604,43690,0.0,1006.012,0.0,8.62,1004.212,0,48.1287909327,1.582,39.80526,6.2916,6.31108325,1.80078
2020-04-01T23:55:23Z,13.21852,1.551586,0.0,91.54917,0,1156,6.2132,4.4505,8.0164,43690,0.0,1006.012,0.0,6.958,1004.212,0,49.6687075062,1.62,12.47497,5.8212,5.89493329167,1.80078
2020-04-02T00:10:24Z,13.21921,1.551582,0.0,91.58308,0,1156,6.566,4.384979,9.290401,43690,0.0,1006.155,0.0,8.13,1004.354,0.0,47.4044297776,1.653,41.01328,5.7624,5.91196661905,1.80078
2020-04-02T00:25:24Z,13.21953,1.417141,0.0,91.61974,0,1156,7.2324,4.364647,9.8784,43690,0.0,1006.155,0.0,9.88,1004.354,0.0,52.9835300599,1.485,33.90981,6.1152,6.2669832381,1.80078
2020-04-02T00:40:24Z,13.22518,1.349854,0.0,91.9941,0,1156,5.8408,4.29913,8.741599,43690,0.0,1006.155,0.0,7.468001,1004.354,0.0,52.4437586798,1.384,47.97533,6.3308,6.38189990476,1.80078
2020-04-02T00:55:25Z,13.22514,1.316139,0.0,92.0624,0,1156,5.8996,4.23587,9.212,43690,0.0,1006.155,0.0,8.08,1004.354,0.0,50.1191381007,1.418,47.44572,6.3993995,6.37326656548,1.80078
2020-04-02T01:10:24Z,13.23076,1.248299,0.0,92.16417,0,1156,6.487599,4.170353,9.5844,43690,0.0,1005.369,0.0,9.49,1003.569,0.0,51.494852809,1.418,50.962,6.4386,6.61068324405,1.80078
2020-04-02T01:25:25Z,13.25286,1.282219,0.0,92.29985,0,1156,5.2724,4.064167,9.2708,43690,0.0,1005.369,0.0,8.21,1003.569,0.0,49.5829406699,1.418,40.943,5.9486,5.98744991667,1.80078
2020-04-02T01:40:24Z,13.24733,1.553589,0.0,92.40161,0,1156,5.0764,4.02124,8.192799,43690,0.0,1005.369,0.0,6.546,1003.569,0.0,50.7114648934,1.588,51.39552,5.6742,5.7541166131,1.80078
2020-04-02T01:55:24Z,13.24181,1.553589,0.0,92.40161,0,1156,4.8216,4.02124,8.408401,43690,0.0,1005.369,0.0,8.41,1003.569,0.0,53.1561345301,1.621,63.41349,5.5468,5.72121664286,1.80078
2020-04-02T02:10:29Z,13.24181,1.519669,0.0,92.74083,0,1156,4.41,4.041576,6.762,43690,0.0,1004.881,0.0,6.448,1003.08,0.0,55.5671379973,1.588,55.12855,4.9196,4.87158579882,1.80078
2020-04-02T02:25:27Z,13.23628,1.553589,0.0,92.84259,0,1156,5.5664,4.084499,8.192799,43690,0.0,1004.881,0.0,6.742,1003.08,0.0,56.4757311575,1.621,45.9525,5.4488,5.45626664286,1.80078
2020-04-02T02:40:29Z,13.22524,1.655354,0.0,92.94436,0,1156,5.2332,4.15002,8.3888,43690,0.0,1004.881,0.0,6.39,1003.08,0.0,57.4865275965,1.859,55.61024,5.3312,5.44706031953,1.80078
2020-04-02T02:55:27Z,13.21971,1.858883,0.0,92.87651,0,1156,5.194,4.278797,8.1536,43690,0.0,1004.881,0.0,6.233,1003.08,0.0,59.2616933334,1.859,60.5234,5.4292,5.46933330357,1.80078
2020-04-02T03:10:30Z,13.21971,1.791039,0.0,92.91043,0,1156,6.2328,4.342056,8.134,43690,0.0,1003.578,0.0,8.8,1001.777,0.0,60.8159625058,1.859,75.31104,5.6448,5.64630766272,1.80078
2020-04-02T03:25:28Z,13.21969,1.824818,0.0,93.01188,0,1156,3.5084,4.364647,8.0164,43690,0.0,1003.578,0.0,7.899,1001.777,0.0,63.9130378845,1.961,98.47963,5.5664,5.64223328571,1.80078
2020-04-02T03:40:26Z,13.21929,2.0951,0.0,93.11125,0,1156,4.6452,4.470833,8.231999,43690,0.0,1003.578,0.0,6.409,1001.777,0.0,66.2778898966,2.163,70.15499,5.194,5.3145166131,1.80078
2020-04-02T03:55:30Z,13.21883,1.957802,0.0,93.10765,0,1156,5.5076,4.556682,8.7024,43690,0.0,1003.578,0.0,6.605,1001.777,0.0,62.5349827061,1.958,68.85183,5.0176,5.07489228994,1.80078
2020-04-02T04:10:32Z,13.21771,1.888542,0.0,93.20625,0,1156,4.6844,4.556682,7.761599,43690,0.0,1003.372,0.0,6.488,1001.571,0.0,61.0046482229,1.991,53.89478,4.9588,5.01794995266,1.80078
2020-04-02T04:25:28Z,13.22379,2.294468,0.0,93.3056,0,1156,6.9776,4.556682,6.9384,43690,0.0,1003.372,0.0,6.233,1001.571,0.0,61.6740623614,2.329,62.22544,4.459,4.53238333333,1.80078
2020-04-02T04:40:31Z,13.22927,2.192413,0.0,93.30493,0,1156,4.2728,4.579277,7.114799,43690,0.0,1003.372,0.0,5.331,1001.571,0.0,61.5566179848,2.26,76.40862,4.1944,4.22281418935,1.80078
2020-04-02T04:55:29Z,13.22858,2.564613,0.0,93.40474,0,1156,2.9792,4.642536,6.664,43690,0.0,1003.372,0.0,5.214,1001.571,0.0,60.3613391647,2.632,41.73129,3.675,3.77906666667,1.80078
2020-04-02T05:10:31Z,13.21738,2.292751,0.0,93.47139,0,1156,4.0768,4.75098,6.174,43690,0.0,1002.28,0.0,6.076,1000.48,0.0,62.5399479612,2.395,70.67502,4.214,4.22119053254,1.80078
2020-04-02T05:25:28Z,13.20086,2.459465,0.0,93.56682,0,1156,2.9988,4.859424,6.7424,43690,0.0,1002.28,0.0,5.958,1000.48,0.0,63.5022437634,2.528,48.90333,4.067,3.9962999994,1.80078
2020-04-02T05:40:30Z,13.19369,2.694592,0.0,93.62969,0,1156,5.0372,4.965607,5.5664,43690,0.0,1002.28,0.0,4.39,1000.48,0.0,65.9391733348,2.627,71.46105,3.136,3.07696804675,1.80078
2020-04-02T05:55:32Z,13.19376,2.930298,0.0,93.69386,0,1156,4.5864,5.096645,6.5268,43690,0.0,1002.28,0.0,6.527,1000.48,0.0,68.5546227878,2.897,77.40509,3.4692,3.46931597574,1.80078
2020-04-02T06:10:29Z,13.18216,3.133282,0.0,93.82846,0,1156,4.41,5.245754,6.4288,43690,0.0,1001.701,0.0,4.077,999.9001,0.0,71.4195655464,3.065,80.58226,3.3418,3.28941666607,1.80078
2020-04-02T06:25:33Z,13.17105,3.167187,0.0,93.79454,0,1156,4.3316,5.41972,5.1548,43690,0.0,1001.701,0.0,5.155,999.9001,0.0,66.8599495677,3.303,57.83046,3.0968,2.92701065089,1.80078
2020-04-02T06:40:29Z,13.17105,3.201096,0.0,93.86235,0,1156,4.116,5.571087,5.7036,43690,0.0,1001.701,0.0,4.841,999.9001,0.0,71.2306395185,3.303,86.9383,3.0968,3.09936666667,1.80078
2020-04-02T06:55:31Z,13.17105,3.302826,0.0,93.86235,0,1156,3.1164,5.679531,5.3116,43690,0.0,1001.701,0.0,4.057,999.9001,0.0,75.2795870441,3.438,53.71347,2.5872,2.58557632959,1.80078
2020-04-02T07:10:33Z,13.17105,3.370644,0.0,93.99799,0,1156,2.1364,5.765385,4.8412,43690,0.0,1000.478,0.0,3.567,998.6776,0.0,77.302712003,3.405,82.86946,1.96,2.04280709822,1.80078
2020-04-02T07:25:35Z,13.1821,3.472374,0.0,93.99799,0,1156,2.646,5.808308,4.8412,43690,0.0,1000.478,0.0,3.234,998.6776,0.0,80.9145295374,3.54,78.43948,1.96,1.97275739349,1.80078